TimeCDT,TemperatureF,Dew PointF,Humidity,Sea Level PressureIn,VisibilityMPH,Wind Direction,Wind SpeedMPH,Gust SpeedMPH,PrecipitationIn,Events,Conditions,WindDirDegrees,DateUTC
12:15 AM,31.1,23.7,74,30.28,10.0,Calm,Calm,-,N/A,,Mostly Cloudy,0,2014-04-18 05:15:00
12:35 AM,28.6,23.9,83,30.27,10.0,Calm,Calm,-,N/A,,Scattered Clouds,0,2014-04-18 05:35:00
12:55 AM,26.1,22.8,88,30.28,10.0,Calm,Calm,-,N/A,,Clear,0,2014-04-18 05:55:00
1:15 AM,24.8,22.8,92,30.28,10.0,Calm,Calm,-,N/A,,Clear,0,2014-04-18 06:15:00
1:35 AM,24.1,22.6,94,30.28,10.0,Calm,Calm,-,N/A,,Clear,0,2014-04-18 06:35:00
1:55 AM,23.5,22.8,97,30.28,10.0,Calm,Calm,-,N/A,,Clear,0,2014-04-18 06:55:00
2:15 AM,22.6,21.9,97,30.28,10.0,Calm,Calm,-,N/A,,Clear,0,2014-04-18 07:15:00
2:35 AM,21.6,21.0,98,30.28,0.5,Calm,Calm,-,N/A,Fog,Light Freezing Fog,0,2014-04-18 07:35:00
2:55 AM,19.4,18.9,98,30.28,2.0,Calm,Calm,-,N/A,,Clear,0,2014-04-18 07:55:00
3:15 AM,19.4,18.7,97,30.28,0.5,Calm,Calm,-,N/A,Fog,Light Freezing Fog,0,2014-04-18 08:15:00
3:35 AM,18.5,18.0,98,30.28,0.5,Calm,Calm,-,N/A,Fog,Light Freezing Fog,0,2014-04-18 08:35:00
3:55 AM,18.5,17.6,96,30.28,4.0,Calm,Calm,-,N/A,,Clear,0,2014-04-18 08:55:00
4:15 AM,17.1,16.0,96,30.29,0.2,Calm,Calm,-,N/A,Fog,Light Freezing Fog,0,2014-04-18 09:15:00
4:35 AM,17.4,16.5,96,30.29,0.2,Calm,Calm,-,N/A,Fog,Light Freezing Fog,0,2014-04-18 09:35:00
4:55 AM,16.2,15.1,95,30.29,0.2,Calm,Calm,-,N/A,Fog,Light Freezing Fog,0,2014-04-18 09:55:00
5:15 AM,15.3,14.0,95,30.30,1.8,Calm,Calm,-,N/A,,Mostly Cloudy,0,2014-04-18 10:15:00
5:35 AM,15.1,13.6,94,30.31,1.8,Calm,Calm,-,N/A,,Mist,0,2014-04-18 10:35:00
5:55 AM,-9999,-9999,N/A,30.31,3.0,Calm,Calm,-,N/A,,Clear,0,2014-04-18 10:55:00
6:15 AM,-9999,-9999,N/A,30.32,5.0,Calm,Calm,-,N/A,,Haze,0,2014-04-18 11:15:00
6:35 AM,-9999,-9999,N/A,30.32,0.2,Calm,Calm,-,N/A,Fog,Fog,0,2014-04-18 11:35:00
6:55 AM,-9999,-9999,N/A,30.33,2.5,Calm,Calm,-,N/A,,Scattered Clouds,0,2014-04-18 11:55:00
7:15 AM,-9999,-9999,N/A,30.33,0.5,Calm,Calm,-,N/A,Fog,Fog,0,2014-04-18 12:15:00
7:35 AM,-9999,-9999,N/A,30.34,0.8,Calm,Calm,-,N/A,,Scattered Clouds,0,2014-04-18 12:35:00
7:55 AM,-9999,-9999,N/A,30.35,10.0,Calm,Calm,-,N/A,,Scattered Clouds,0,2014-04-18 12:55:00
8:15 AM,-9999,-9999,N/A,30.35,10.0,Calm,Calm,-,N/A,,Clear,0,2014-04-18 13:15:00
8:35 AM,-9999,-9999,N/A,30.35,10.0,Calm,Calm,-,N/A,,Clear,0,2014-04-18 13:35:00
8:55 AM,-9999,-9999,N/A,30.36,10.0,Calm,Calm,-,N/A,,Clear,0,2014-04-18 13:55:00
9:15 AM,28.0,25.7,91,30.37,10.0,Calm,Calm,-,N/A,,Clear,0,2014-04-18 14:15:00
9:35 AM,29.8,24.6,81,30.37,10.0,NNE,3.5,-,N/A,,Clear,20,2014-04-18 14:35:00
9:55 AM,31.6,23.0,70,30.37,10.0,NNE,4.6,-,N/A,,Clear,20,2014-04-18 14:55:00
10:15 AM,32.0,22.8,69,30.37,10.0,Calm,Calm,-,N/A,,Scattered Clouds,0,2014-04-18 15:15:00
10:35 AM,33.1,22.6,66,30.37,10.0,NE,3.5,-,N/A,,Scattered Clouds,50,2014-04-18 15:35:00
11:15 AM,34.7,22.5,61,30.37,10.0,NNE,8.1,-,N/A,,Clear,30,2014-04-18 16:15:00
11:35 AM,35.6,21.9,58,30.36,10.0,NE,3.5,-,N/A,,Clear,40,2014-04-18 16:35:00
11:55 AM,36.1,21.2,55,30.36,10.0,North,3.5,-,N/A,,Clear,10,2014-04-18 16:55:00
12:15 PM,36.7,21.4,54,30.37,10.0,NNE,8.1,-,N/A,,Clear,20,2014-04-18 17:15:00
12:35 PM,37.2,20.8,52,30.36,10.0,NNE,8.1,-,N/A,,Clear,20,2014-04-18 17:35:00
12:55 PM,37.8,19.0,47,30.36,10.0,NNE,4.6,-,N/A,,Clear,20,2014-04-18 17:55:00
1:15 PM,38.5,19.9,47,30.36,10.0,North,9.2,-,N/A,,Clear,10,2014-04-18 18:15:00
1:35 PM,38.3,20.1,48,30.36,10.0,NNE,10.4,-,N/A,,Clear,20,2014-04-18 18:35:00
1:55 PM,38.7,20.1,47,30.36,10.0,North,11.5,-,N/A,,Clear,10,2014-04-18 18:55:00
2:15 PM,39.7,18.7,43,30.37,10.0,NNE,9.2,-,N/A,,Clear,20,2014-04-18 19:15:00
2:35 PM,39.7,18.9,43,30.36,10.0,NNE,6.9,-,N/A,,Clear,20,2014-04-18 19:35:00
2:55 PM,39.7,18.9,43,30.35,10.0,North,6.9,-,N/A,,Clear,360,2014-04-18 19:55:00
3:15 PM,40.1,19.2,43,30.35,10.0,NNE,8.1,-,N/A,,Clear,20,2014-04-18 20:15:00
3:35 PM,40.1,19.8,44,30.35,10.0,NNE,8.1,-,N/A,,Clear,30,2014-04-18 20:35:00
3:55 PM,40.6,18.0,40,30.34,10.0,North,8.1,-,N/A,,Clear,10,2014-04-18 20:55:00
4:15 PM,41.4,17.8,39,30.33,10.0,NE,5.8,-,N/A,,Clear,50,2014-04-18 21:15:00
4:35 PM,41.4,19.8,42,30.33,10.0,North,5.8,-,N/A,,Clear,360,2014-04-18 21:35:00
4:55 PM,42.3,18.1,38,30.33,10.0,Calm,Calm,-,N/A,,Clear,0,2014-04-18 21:55:00
5:15 PM,41.9,16.7,36,30.33,10.0,Calm,Calm,-,N/A,,Clear,0,2014-04-18 22:15:00
5:35 PM,42.6,16.3,35,30.33,10.0,North,5.8,-,N/A,,Clear,10,2014-04-18 22:35:00
5:55 PM,42.1,17.8,38,30.33,10.0,Calm,Calm,-,N/A,,Clear,0,2014-04-18 22:55:00
6:15 PM,43.0,16.7,35,30.32,10.0,Calm,Calm,-,N/A,,Clear,0,2014-04-18 23:15:00
6:35 PM,41.4,16.0,36,30.33,10.0,East,4.6,-,N/A,,Clear,80,2014-04-18 23:35:00
6:55 PM,42.1,13.1,31,30.33,10.0,East,3.5,-,N/A,,Clear,80,2014-04-18 23:55:00
7:15 PM,41.7,12.2,30,30.33,10.0,East,3.5,-,N/A,,Clear,80,2014-04-19 00:15:00
7:35 PM,40.5,14.2,34,30.32,10.0,ENE,4.6,-,N/A,,Clear,70,2014-04-19 00:35:00
7:55 PM,39.0,13.8,36,30.31,10.0,ENE,5.8,-,N/A,,Clear,70,2014-04-19 00:55:00
8:15 PM,37.8,15.8,41,30.30,10.0,East,5.8,-,N/A,,Clear,90,2014-04-19 01:15:00
8:35 PM,37.0,14.9,40,30.30,10.0,East,4.6,-,N/A,,Clear,80,2014-04-19 01:35:00
8:55 PM,36.7,15.4,42,30.31,10.0,East,4.6,-,N/A,,Clear,100,2014-04-19 01:55:00
9:15 PM,36.7,16.9,45,30.33,10.0,East,4.6,-,N/A,,Clear,90,2014-04-19 02:15:00
9:35 PM,37.0,17.6,45,30.33,10.0,East,4.6,-,N/A,,Scattered Clouds,100,2014-04-19 02:35:00
9:55 PM,35.8,18.7,50,30.33,10.0,East,4.6,-,N/A,,Scattered Clouds,80,2014-04-19 02:55:00
10:15 PM,36.1,19.0,50,30.33,10.0,East,4.6,-,N/A,,Mostly Cloudy,100,2014-04-19 03:15:00
10:35 PM,36.1,19.6,51,30.32,10.0,ESE,5.8,-,N/A,,Overcast,110,2014-04-19 03:35:00
10:55 PM,36.3,19.6,51,30.31,10.0,ESE,6.9,-,N/A,,Overcast,110,2014-04-19 03:55:00
11:15 PM,36.0,21.2,55,30.30,10.0,East,6.9,-,N/A,,Scattered Clouds,100,2014-04-19 04:15:00
11:35 PM,36.0,21.9,57,30.32,10.0,ESE,5.8,-,N/A,,Scattered Clouds,110,2014-04-19 04:35:00
11:55 PM,36.0,22.1,57,30.32,10.0,ESE,9.2,-,N/A,,Scattered Clouds,110,2014-04-19 04:55:00